Location: Audinghen
(50.8518°N, 1.6129°E)
Time: 21:15:54
(UTC+00:00)

Cosmos 1603 - Pass Details

Date: 07 August 2020
Orbit: 831 x 860 km, 71.0° (Epoch: 22 September)

Event Time Altitude Azimuth Distance (km) Brightness Sun altitude
Rises 02:36:37 0° 331° (NNW) 3,448 7.2 -14.5°
Reaches altitude 10° 02:39:07 10° 335° (NNW) 2,507 6.5 -14.3°
Maximum altitude 02:44:51 62° 56° (NE) 965 4.3 -13.7°
Drops below altitude 10° 02:50:30 10° 137° (SE) 2,480 6.1 -13.1°
Sets 02:52:58 0° 141° (SE) 3,409 6.8 -12.9°
